Skip Page Navigation
NASA JPL Caltech
NASA Logo - Jet Propulsion Laboratory + View the NASA Portal
+ Center for Near-Earth Object Studies
JPL Home Earth Solar System Stars & Galaxies Technology
JPL Solar System Dynamics
BODIES ORBITS EPHEMERIDES TOOLS PHYSICAL DATA DISCOVERY FAQ SITE MAP
JPL Small-Body Database Browser
Search: [ help ]  
(2010 VE253)
Classification: TransNeptunian Object          SPK-ID: 54049820
Ephemeris | Orbit Diagram | Orbital Elements | Mission Design | Physical Parameters ]

[ show orbit diagram ]
Orbital Elements at Epoch 2459000.5 (2020-May-31.0) TDB
Reference: JPL 1 (heliocentric ecliptic J2000)
 Element Value Uncertainty (1-sigma)   Units 
e .480490869210115 1.7544e-05  
a 31.64915117461094 0.0012017 au
q 16.44202301695979 7.0022e-05 au
i 7.902775678083428 1.2265e-05 deg
node 341.8484122150219 0.00017903 deg
peri 53.47027394046727 0.00054758 deg
M 18.03256240429885 0.0011278 deg
tp 2455742.909647773677
(2011-Jun-30.40964777)
0.028863 TDB
period 65034.15879053905
178.05
3.7041
0.01014
d
yr
n .005535552495719705 3.1528e-07 deg/d
Q 46.85627933226208 0.0017792 au
  Orbit Determination Parameters
   # obs. used (total)      71  
   data-arc span      2693 days (7.37 yr)  
   first obs. used      2009-09-15  
   last obs. used      2017-01-29  
   planetary ephem.      DE431  
   SB-pert. ephem.      SB431-N16  
   condition code      2  
   norm. resid. RMS      .77109  
   source      ORB  
   producer      Otto Matic  
   solution date      2020-Jul-28 10:12:37  

Additional Information
 Earth MOID = 15.4554 au 
 Jupiter MOID = 11.5306 au 
 T_jup = 4.449 
[ show covariance matrix ]

Ephemeris | Orbit Diagram | Orbital Elements | Mission Design | Physical Parameters ]

Physical Parameter Table
Parameter Symbol Value Units Sigma Reference Notes
absolute magnitude H 9.9316   .38031 1 autocmod 2.8
Ephemeris | Orbit Diagram | Orbital Elements | Mission Design | Physical Parameters ]
ABOUT SSD CREDITS/AWARDS PRIVACY/COPYRIGHT GLOSSARY LINKS
FirstGov 2021-Jan-17 19:55 UT
(server date/time)  
NASA Home Page
Site Manager:   Ryan S. Park
Webmaster  Alan B. Chamberlin